Zurück zum Katalog

COSMOS 1818 COOLANT

LostLEO
NORAD 50793·DEBRIS·🇷🇺 Russia

Gestartet Feb 1, 1987 von Baikonur Cosmodrome

Loading…

Nächste Überflüge (nächste 24 Stunden)

TLE

VeraltetSource: Space-Track

Epoche: Apr 16, 2025, 18:44 UTC

1 50793U 87011BJ  25106.78094034  .00001545  00000-0  54107-3 0  9995
2 50793  65.0117 292.1689 0013319 261.8579  98.0998 14.38155067597204

Verfolge COSMOS 1818 COOLANT in Echtzeit mit AllMySat

Download on the App Store